Weather observations for the past three days for
Lamesa Municipal Airport
Imperial (Metric)
Date Time (cdt) Wind (mph) Vis. (mi.) Weather Sky Cond. Temperature (ºF) Relative Humidity Wind Chill (°F) Heat Index (°F) Pressure Precipitation (in)
Air Dwpt 6 hour altimeter (in) sea level (mb) 1 hr 3 hr 6 hr
Max. Min.
12 10:55 S 6 10.00 Partly Cloudy SCT029 SCT040 SCT120 78.8 64.4 61% 81 30.1 0.0
12 10:35 E 6 7.00 Partly Cloudy SCT100 SCT120 77 64.4 65% 79 30.1 0.0
12 10:15 S 3 10.00 Partly Cloudy SCT110 77 64.4 65% 79 30.1 0.0
12 09:35 SE 3 10.00 Mostly Cloudy BKN100 BKN120 75.2 64.4 69% 77 30.1 0.0
12 09:15 E 6 10.00 Mostly Cloudy BKN100 73.4 64.4 74% 30.1 0.0
12 08:55 NE 6 10.00 Mostly Cloudy BKN100 BKN120 71.6 64.4 78% 30.1 0.0
12 08:35 NE 6 10.00 Fair CLR 69.8 64.4 83% 30.1 0.0
12 08:15 NE 5 10.00 Partly Cloudy SCT090 SCT120 68 66.2 94% 30.1 0.0
12 07:55 NE 5 10.00 Overcast BKN100 OVC120 68 66.2 94% 30.1 0.0
12 07:35 NE 6 10.00 Overcast OVC100 66.2 64.4 94% 30.1 0.0
12 07:15 NE 6 10.00 Overcast OVC100 64.4 64.4 100% 30.09 0.0
12 06:55 NE 3 7.00 Mostly Cloudy BKN100 64.4 62.6 94% 30.09 0.0
12 06:35 NE 6 10.00 Mostly Cloudy BKN100 64.4 64.4 100% 30.08 0.0
12 06:15 NE 6 10.00 Mostly Cloudy BKN100 64.4 62.6 94% 30.08 0.0
12 05:55 NE 7 10.00 Mostly Cloudy BKN100 BKN120 64.4 62.6 94% 30.08 0.0
12 05:35 NE 8 10.00 Partly Cloudy SCT110 64.4 62.6 94% 30.08 0.0
12 05:15 E 3 10.00 Fair CLR 64.4 62.6 94% 30.07 0.0
12 04:55 Calm 10.00 Fair CLR 64.4 62.6 94% 30.08 0.0
12 04:35 Calm 10.00 Fair CLR 66.2 64.4 94% 30.07 0.0
12 04:15 Calm 10.00 Fair CLR 66.2 64.4 94% 30.07 0.0
12 03:55 S 3 10.00 Partly Cloudy SCT100 SCT120 66.2 64.4 94% 30.07 0.0
12 03:35 SE 3 10.00 Mostly Cloudy BKN100 66.2 64.4 94% 30.07 0.0
12 03:15 SE 5 10.00 Mostly Cloudy BKN095 66.2 64.4 94% 30.07 0.0
12 02:55 SE 7 10.00 Mostly Cloudy BKN095 BKN120 66.2 64.4 94% 30.07 0.0
12 02:35 SE 7 10.00 Overcast BKN095 OVC120 68 64.4 88% 30.07 0.0
12 02:15 E 10 10.00 Overcast BKN095 OVC120 68 64.4 88% 30.06 0.0
12 01:55 E 12 10.00 Overcast BKN095 OVC120 68 64.4 88% 30.06 0.0
12 01:35 E 9 10.00 Overcast BKN095 OVC120 68 64.4 88% 30.07 0.0
12 01:15 E 8 10.00 Overcast OVC095 69.8 64.4 83% 30.07 0.0
12 00:55 E 8 10.00 Overcast OVC095 69.8 64.4 83% 30.07 0.0
12 00:35 E 10 10.00 Overcast OVC095 69.8 64.4 83% 30.07 0.0
12 00:15 E 8 10.00 Overcast OVC095 69.8 64.4 83% 30.07 0.0
11 23:55 E 7 10.00 Overcast OVC095 71.6 64.4 78% 30.07 0.0
11 23:35 E 8 10.00 Overcast OVC095 71.6 64.4 78% 30.07 0.0
11 23:15 E 7 10.00 Overcast OVC095 71.6 64.4 78% 30.06 0.0
11 22:55 E 7 10.00 Overcast OVC095 73.4 64.4 74% 30.05 0.0
11 22:35 E 9 10.00 Overcast BKN095 OVC120 73.4 64.4 74% 30.05 0.0
11 22:15 E 13 10.00 Overcast BKN095 OVC120 75.2 64.4 69% 77 30.04 0.0
11 21:55 E 13 10.00 Overcast BKN095 OVC120 77 62.6 61% 79 30.02 0.0
11 21:35 E 12 10.00 Mostly Cloudy BKN095 BKN120 77 62.6 61% 79 30.02 0.0
11 21:15 E 12 10.00 Mostly Cloudy BKN095 BKN120 78.8 62.6 58% 80 30.01 0.0
11 20:35 NE 14 10.00 Overcast OVC095 80.6 60.8 51% 81 30 0.0
11 20:15 NE 13 10.00 Overcast BKN095 OVC120 80.6 60.8 51% 81 29.99 0.0
11 19:55 NE 15 10.00 Overcast OVC095 82.4 62.6 51% 83 29.98 0.0
11 19:35 NE 10 10.00 Overcast OVC095 82.4 62.6 51% 83 29.98 0.0
11 19:15 NE 10 10.00 Overcast SCT046 OVC095 82.4 62.6 51% 83 29.97 0.0
11 18:55 NE 14 10.00 Overcast BKN095 OVC120 84.2 62.6 48% 85 29.97 0.0
11 18:35 E 10 10.00 Overcast SCT060 OVC095 84.2 62.6 48% 85 29.97 0.0
11 17:55 NE 13 G 18 10.00 Mostly Cloudy SCT047 BKN095 BKN110 84.2 62.6 48% 85 29.97 0.0
11 17:35 NE 10 10.00 Overcast SCT045 SCT060 OVC095 86 62.6 46% 87 29.97 0.0
11 17:15 NE 15 G 21 10.00 Overcast SCT043 SCT060 OVC095 84.2 62.6 48% 85 29.98 0.0
11 16:55 NE 6 10.00 Overcast SCT042 SCT080 OVC095 82.4 62.6 51% 83 29.98 0.0
11 16:35 NE 9 10.00 Overcast BKN040 BKN050 OVC090 82.4 64.4 55% 84 29.98 0.0
11 16:15 NE 10 10.00 Overcast SCT070 BKN090 OVC110 82.4 64.4 55% 84 29.99 0.0
11 15:55 NE 10 10.00 Overcast SCT036 BKN070 OVC110 82.4 64.4 55% 84 29.99 0.0
11 15:35 NE 9 10.00 Overcast BKN036 OVC090 82.4 64.4 55% 84 30 0.0
11 15:15 NE 12 10.00 Mostly Cloudy SCT034 BKN090 BKN110 82.4 64.4 55% 84 30.01 0.0
11 14:55 E 9 G 17 10.00 Mostly Cloudy BKN032 BKN100 BKN120 82.4 64.4 55% 84 30.02 0.0
11 14:35 NE 5 10.00 Mostly Cloudy SCT030 BKN038 BKN100 80.6 64.4 58% 82 30.02 0.0
11 14:15 NE 9 10.00 Mostly Cloudy BKN030 BKN038 BKN110 78.8 64.4 61% 81 30.02 0.0
11 13:55 NE 12 G 16 10.00 Mostly Cloudy SCT026 BKN033 BKN090 80.6 66.2 62% 83 30.03 0.0
11 13:35 E 13 10.00 Mostly Cloudy BKN026 BKN035 BKN110 78.8 66.2 65% 81 30.03 0.0
11 13:15 E 10 10.00 Overcast SCT024 BKN070 OVC080 75.2 66.2 74% 77 30.04 0.0
11 12:55 E 15 10.00 Overcast SCT022 BKN034 OVC080 75.2 66.2 74% 77 30.04 0.0
11 12:35 E 15 10.00 Overcast OVC024 75.2 66.2 74% 77 30.04 0.0
11 12:15 E 7 10.00 Overcast BKN024 OVC032 77 66.2 69% 79 30.04 0.0
11 11:35 E 3 10.00 Overcast BKN020 OVC030 75.2 66.2 74% 77 30.05 0.0
11 11:15 E 5 10.00 Mostly Cloudy BKN018 BKN050 BKN120 75.2 66.2 74% 77 30.04 0.0
11 10:55 NE 5 10.00 Mostly Cloudy SCT016 SCT050 BKN100 75.2 66.2 74% 77 30.04 0.0
11 10:35 NE 6 10.00 Overcast SCT016 OVC080 73.4 66.2 78% 30.04 0.0
11 10:15 NE 6 10.00 Overcast SCT016 OVC090 73.4 66.2 78% 30.04 0.0
11 09:55 NE 6 10.00 Overcast OVC090 73.4 66.2 78% 30.04 0.0
11 09:30 NE 7 10.00 Overcast BKN100 OVC120 71.6 66.2 83% 30.04 0.0
11 09:15 NE 9 10.00 Overcast SCT022 OVC100 71.6 66.2 83% 30.03 0.0
11 08:55 E 12 10.00 Overcast SCT015 OVC020 69.8 66.2 88% 30.03 0.0
11 08:35 E 12 10.00 Overcast SCT013 OVC021 69.8 66.2 88% 30.03 0.0
11 08:15 E 8 10.00 Overcast OVC011 69.8 66.2 88% 30.02 0.0
11 07:55 NE 6 7.00 Fog/Mist OVC009 69.8 68 94% 30.01 0.0
11 07:35 NE 7 7.00 Fog/Mist BKN009 OVC080 69.8 68 94% 30.01 0.0
11 07:15 Calm 7.00 Overcast SCT009 BKN100 OVC120 68 66.2 94% 29.99 0.0
11 06:55 W 7 7.00 Overcast SCT012 BKN090 OVC110 68 66.2 94% 29.98 0.0
11 06:35 SW 10 10.00 Overcast BKN012 OVC100 69.8 66.2 88% 29.97 0.0
11 06:15 SW 8 10.00 Overcast OVC012 69.8 68 94% 29.97 0.0
11 05:35 S 10 10.00 Overcast OVC012 69.8 66.2 88% 29.97 0.0
11 04:55 W 6 10.00 Overcast BKN009 OVC014 68 66.2 94% 29.97 0.0 0.01
11 04:35 SW 8 10.00 Overcast SCT005 SCT010 OVC014 68 66.2 94% 29.96 0.0 0.01
11 04:15 S 3 10.00 Overcast OVC016 68 66.2 94% 29.96 0.0 0.01
11 03:55 S 5 10.00 Overcast OVC016 68 66.2 94% 29.97 0.0
11 03:35 Calm 10.00 Overcast OVC016 68 66.2 94% 29.97 0.0
11 03:15 Calm 10.00 Overcast BKN018 OVC090 68 66.2 94% 29.97 0.0
11 02:55 E 6 10.00 Overcast BKN020 OVC100 68 66.2 94% 29.97 0.0 0.01
11 02:35 E 5 10.00 Overcast SCT020 OVC100 68 66.2 94% 29.98 0.0
11 02:15 SE 7 10.00 Overcast OVC100 68 66.2 94% 29.99 0.0
11 01:55 E 6 10.00 Overcast OVC100 68 66.2 94% 29.99 0.0 0.01
11 01:35 E 6 10.00 Overcast OVC100 68 66.2 94% 30.01 0.0 0.01
11 01:15 E 7 10.00 Thunderstorm in Vicinity BKN100 BKN120 68 66.2 94% 30.01 0.0
11 00:55 E 6 10.00 Mostly Cloudy BKN100 BKN120 68 66.2 94% 30 0.0 0.01
11 00:35 E 9 10.00 Mostly Cloudy BKN100 BKN120 68 66.2 94% 30 0.0 0.01
11 00:15 E 9 10.00 Overcast BKN100 OVC120 68 66.2 94% 30.01 0.0
10 23:35 E 8 10.00 Overcast OVC110 68 66.2 94% 30.01 0.0 0.01
10 23:15 E 7 10.00 Overcast OVC110 68 66.2 94% 30.02 0.0
10 22:55 E 14 10.00 Mostly Cloudy BKN100 BKN120 68 66.2 94% 30.01 0.0 0.01
10 22:35 E 12 10.00 Mostly Cloudy SCT020 BKN110 69.8 66.2 88% 30.02 0.0
10 22:15 E 14 10.00 Mostly Cloudy BKN018 BKN110 69.8 66.2 88% 30.01 0.0
10 21:55 NE 12 10.00 Mostly Cloudy SCT018 SCT090 BKN120 69.8 68 94% 30.02 0.0 0.02
10 21:35 E 10 10.00 Mostly Cloudy BKN090 BKN120 69.8 66.2 88% 30.01 0.0 0.01
10 21:15 E 6 10.00 Thunderstorm in Vicinity SCT015 BKN090 OVC120 69.8 66.2 88% 30 0.0
10 20:55 E 7 2.00 Fog/Mist SCT015 BKN034 OVC095 69.8 66.2 88% 29.98 0.0 0.02
10 20:35 NE 16 4.00 Thunderstorm in Vicinity Haze SCT043 SCT080 BKN120 71.6 66.2 83% 29.99 0.0
10 20:15 E 18 7.00 Mostly Cloudy SCT021 SCT050 BKN085 73.4 66.2 78% 29.96 0.0
10 19:55 E 15 10.00 Overcast SCT075 BKN090 OVC110 75.2 64.4 69% 77 29.99 0.0
10 19:35 E 15 10.00 Overcast SCT075 BKN090 OVC120 75.2 64.4 69% 77 29.98 0.0
10 19:15 E 15 10.00 Overcast BKN090 OVC120 77 64.4 65% 79 29.97 0.0
10 18:55 E 17 10.00 Overcast SCT037 BKN100 OVC110 77 64.4 65% 79 29.93 0.0
10 18:35 E 17 10.00 Overcast SCT037 SCT075 OVC100 80.6 62.6 54% 82 29.93 0.0
10 18:15 E 14 G 18 10.00 Overcast SCT039 OVC110 80.6 62.6 54% 82 29.95 0.0
10 17:55 E 12 G 16 10.00 Overcast SCT040 BKN100 OVC120 80.6 62.6 54% 82 29.96 0.0
10 17:35 E 10 10.00 Overcast SCT038 BKN080 OVC110 80.6 62.6 54% 82 29.97 0.0
10 17:15 E 7 10.00 Overcast SCT038 BKN075 OVC110 80.6 62.6 54% 82 29.98 0.0
10 16:55 E 14 G 18 10.00 Mostly Cloudy SCT075 BKN095 BKN120 80.6 64.4 58% 82 29.98 0.0
10 16:35 E 12 10.00 Mostly Cloudy SCT029 SCT075 BKN095 80.6 64.4 58% 82 29.99 0.0
10 16:15 E 12 G 17 10.00 Mostly Cloudy SCT029 BKN100 BKN120 78.8 64.4 61% 81 29.99 0.0
10 15:55 E 10 10.00 Mostly Cloudy BKN029 BKN090 BKN120 78.8 64.4 61% 81 30.01 0.0
10 15:35 E 9 10.00 Mostly Cloudy BKN025 BKN100 77 64.4 65% 79 30.02 0.0
10 15:15 NE 8 10.00 Overcast BKN022 OVC045 77 64.4 65% 79 30.02 0.0
10 14:55 E 9 10.00 Overcast BKN018 OVC026 75.2 64.4 69% 77 30.04 0.0
10 14:35 E 6 10.00 Overcast OVC016 73.4 64.4 74% 30.05 0.0
10 14:15 NE 7 10.00 Overcast OVC016 71.6 64.4 78% 30.06 0.0
10 13:55 E 7 10.00 Overcast OVC014 71.6 64.4 78% 30.07 0.0
10 13:35 E 10 10.00 Overcast OVC014 71.6 64.4 78% 30.07 0.0
10 13:15 E 8 10.00 Overcast OVC012 71.6 64.4 78% 30.08 0.0
10 12:55 E 8 10.00 Overcast OVC010 69.8 64.4 83% 30.08 0.0
10 12:35 E 13 10.00 Overcast OVC012 69.8 64.4 83% 30.08 0.0
10 12:15 E 10 10.00 Overcast OVC012 69.8 62.6 78% 30.08 0.0
10 11:55 NE 14 10.00 Overcast OVC012 69.8 62.6 78% 30.08 0.0
10 11:35 E 12 10.00 Overcast OVC016 69.8 62.6 78% 30.08 0.0
10 11:15 NE 16 10.00 Overcast OVC018 71.6 62.6 73% 30.08 0.0
10 10:55 E 14 10.00 Overcast BKN023 OVC032 73.4 62.6 69% 30.07 0.0
10 10:35 NE 13 10.00 Overcast SCT023 OVC032 73.4 62.6 69% 30.07 0.0
10 10:15 NE 12 G 18 10.00 Overcast SCT023 SCT031 OVC042 71.6 62.6 73% 30.07 0.0
10 09:55 NE 13 10.00 Mostly Cloudy SCT044 SCT075 BKN100 71.6 62.6 73% 30.07 0.0
10 09:35 NE 10 10.00 Overcast SCT075 OVC100 71.6 62.6 73% 30.07 0.0
10 09:15 NE 7 10.00 Overcast SCT047 BKN095 OVC120 69.8 64.4 83% 30.07 0.0
10 08:55 N 6 10.00 Mostly Cloudy BKN044 BKN050 BKN120 69.8 64.4 83% 30.07 0.0
10 08:35 N 5 10.00 Mostly Cloudy BKN044 BKN110 68 64.4 88% 30.06 0.0
10 08:15 NE 6 10.00 Mostly Cloudy SCT014 BKN044 BKN100 66.2 64.4 94% 30.07 0.0
10 07:55 N 7 10.00 Mostly Cloudy BKN014 BKN090 BKN120 66.2 64.4 94% 30.05 0.0
10 07:35 NE 5 10.00 Mostly Cloudy BKN016 BKN080 66.2 64.4 94% 30.05 0.0
10 07:15 NE 5 10.00 Partly Cloudy SCT016 64.4 64.4 100% 30.05 0.0
10 06:55 NE 7 10.00 Partly Cloudy SCT100 64.4 62.6 94% 30.05 0.0
10 06:35 N 10 10.00 Partly Cloudy SCT100 64.4 62.6 94% 30.04 0.0
10 06:15 N 7 10.00 Fair CLR 64.4 64.4 100% 30.05 0.0
10 05:55 N 7 10.00 Fair CLR 64.4 64.4 100% 30.05 0.0
10 05:35 NE 7 10.00 Partly Cloudy SCT100 SCT120 66.2 64.4 94% 30.04 0.0
10 05:15 NE 9 10.00 Fair CLR 66.2 62.6 88% 30.04 0.0
10 04:55 N 9 10.00 Fair CLR 66.2 62.6 88% 30.04 0.0
10 04:35 E 8 10.00 Partly Cloudy SCT100 SCT120 66.2 62.6 88% 30.03 0.0
10 04:15 E 10 10.00 Fair CLR 66.2 62.6 88% 30.03 0.0
10 03:55 E 17 10.00 Fair CLR 66.2 62.6 88% 30.03 0.0 0.01
10 03:35 E 17 G 24 10.00 Partly Cloudy SCT120 68 64.4 88% 30.02 0.0 0.01
10 03:15 E 6 10.00 Partly Cloudy SCT120 68 64.4 88% 30.01 0.0
10 02:55 NE 3 10.00 Fair CLR 68 64.4 88% 29.99 0.0 0.01
10 02:35 N 5 10.00 Fair CLR 68 62.6 83% 29.98 0.0 0.01
10 02:15 N 5 10.00 Fair CLR 68 62.6 83% 29.98 0.0 0.01
10 01:55 NW 7 10.00 Fair CLR 68 64.4 88% 29.96 0.0 0.01
10 01:35 NW 6 10.00 Fair CLR 68 62.6 83% 29.96 0.0 0.01
10 01:15 NW 3 10.00 Fair CLR 68 62.6 83% 29.96 0.0 0.01
10 00:55 NW 6 10.00 Partly Cloudy SCT100 SCT120 68 62.6 83% 29.98 0.0 0.01
10 00:35 N 10 G 17 10.00 Overcast OVC110 68 62.6 83% 30 0.0 0.01
10 00:15 E 15 G 37 10.00 Light Rain OVC110 66.2 62.6 88% 30.02 0.0 0.01
09 23:55 N 29 G 41 10.00 Light Rain and Windy OVC110 68 62.6 83% 29.97 0.0 0.02
09 23:35 N 33 G 41 10.00 Light Rain and Windy SCT075 BKN110 66.2 62.6 88% 29.99 0.0 0.01
09 23:15 N 29 G 35 10.00 Thunderstorm Light Rain in Vicinity and Windy SCT090 BKN110 68 62.6 83% 30.01 0.0 0.01
09 22:55 N 23 G 37 10.00 Light Rain and Breezy OVC110 68 64.4 88% 30.04 0.0 0.02
09 22:35 N 29 G 33 7.00 Thunderstorm Rain and Windy SCT065 SCT085 OVC110 68 64.4 88% 30.04 0.0 0.01
09 22:15 N 24 G 33 10.00 Thunderstorm Light Rain in Vicinity and Breezy SCT065 BKN085 OVC110 68 64.4 88% 30.07 0.0
09 21:55 NW 17 7.00 Thunderstorm SCT065 BKN085 OVC110 71.6 60.8 69% 30.03 0.0
09 21:35 W 22 G 32 10.00 Overcast and Breezy SCT060 BKN075 OVC110 71.6 62.6 73% 29.99 0.0
09 21:15 NW 32 G 37 10.00 Overcast and Windy SCT032 BKN075 OVC090 73.4 62.6 69% 29.99 0.0
09 20:55 W 26 G 33 5.00 Mostly Cloudy with Haze and Windy SCT032 BKN100 BKN120 78.8 60.8 54% 80 29.98 0.0
09 20:35 S 14 G 24 10.00 Partly Cloudy SCT110 78.8 59 51% 80 29.94 0.0
09 20:15 S 24 G 29 5.00 Mostly Cloudy with Haze and Breezy SCT033 BKN110 78.8 60.8 54% 80 29.91 0.0
09 19:55 S 31 G 40 3.00 Overcast with Haze and Windy SCT033 BKN095 OVC120 82.4 60.8 48% 83 29.92 0.0
09 19:35 E 17 G 24 10.00 Overcast BKN095 OVC120 91.4 50 24% 88 29.89 0.0
09 19:15 SE 18 10.00 Overcast OVC095 93.2 51.8 24% 90 29.89 0.0
09 18:55 E 20 10.00 Overcast BKN095 OVC110 93.2 51.8 24% 90 29.88 0.0
09 18:35 SE 16 G 26 10.00 Overcast BKN095 OVC120 93.2 51.8 24% 90 29.87 0.0
09 18:15 SE 17 G 25 10.00 Overcast BKN095 OVC120 93.2 53.6 26% 91 29.87 0.0
09 17:55 SE 20 G 28 10.00 Overcast SCT080 OVC095 95 55.4 26% 93 29.87 0.0
09 17:35 E 21 G 30 10.00 Mostly Cloudy and Breezy BKN095 BKN110 95 53.6 25% 93 29.88 0.0
09 17:15 E 15 G 26 10.00 Mostly Cloudy BKN085 96.8 55.4 25% 95 29.88 0.0
09 16:55 SE 20 G 25 10.00 Mostly Cloudy SCT080 BKN095 98.6 55.4 24% 97 29.88 0.0
09 16:35 SE 15 G 26 10.00 Partly Cloudy SCT090 SCT110 96.8 55.4 25% 95 29.89 0.0
09 16:15 E 16 10.00 Fair CLR 95 57.2 28% 94 29.9 0.0
09 15:55 E 18 G 25 10.00 Fair CLR 93.2 57.2 30% 92 29.91 0.0
09 15:35 SE 15 G 29 10.00 Partly Cloudy SCT090 SCT110 95 55.4 26% 93 29.92 0.0
09 14:55 E 16 G 26 10.00 Partly Cloudy SCT075 SCT090 SCT120 95 57.2 28% 94 29.94 0.0
09 14:35 E 16 G 28 10.00 Partly Cloudy SCT070 SCT090 SCT110 95 57.2 28% 94 29.94 0.0
09 14:15 E 21 G 28 10.00 Overcast and Breezy SCT070 BKN090 OVC110 95 57.2 28% 94 29.94 0.0
09 13:55 E 22 G 26 10.00 Overcast and Breezy SCT070 OVC090 95 59 30% 94 29.94 0.0
09 13:35 E 20 G 24 10.00 Overcast SCT065 BKN090 OVC110 95 60.8 32% 95 29.95 0.0
09 13:15 E 15 G 21 10.00 Mostly Cloudy SCT075 BKN100 BKN110 93.2 62.6 36% 94 29.95 0.0
09 12:55 E 13 G 21 10.00 Partly Cloudy SCT100 SCT120 91.4 62.6 38% 92 29.95 0.0
09 12:35 E 12 G 20 10.00 Fair CLR 91.4 62.6 38% 92 29.95 0.0
09 12:15 E 15 G 21 10.00 Fair CLR 89.6 62.6 41% 90 29.95 0.0
09 11:55 E 13 10.00 Fair CLR 87.8 62.6 43% 88 29.96 0.0
09 11:35 E 13 G 17 10.00 Fair CLR 87.8 62.6 43% 88 29.96 0.0
09 11:15 E 12 G 17 10.00 Fair CLR 86 62.6 46% 87 29.96 0.0
Date Time (cdt) Wind (mph) Vis. (mi.) Weather Sky Cond. Air Dwpt Max. Min. Relative Humidity Wind Chill (°F) Heat Index (°F) altimeter (in) sea level (mb) 1 hr 3 hr 6 hr
6 hour
Temperature (ºF) Pressure Precipitation (in)